Newport News, VA

8:50 PM EST on December 15, 2017 (GMT -0500)
Newport News-Williamsburg International

Weather History for KPHF - September, 2013

Change the Weather History Date:

Tuesday, September 17, 2013

  Actual Average Record
Temperature  
Mean Temperature 67 °F -  
Max Temperature 73 °F 82 °F 95 °F (1958)
Min Temperature 59 °F 64 °F 48 °F (2000)
Cooling Degree Days 2    
Growing Degree Days 17 (Base 50)    
Moisture  
Dew Point 52 °F    
Average Humidity 62    
Maximum Humidity 81    
Minimum Humidity 46    
Precipitation  
Precipitation 0.00 in - - ()
Sea Level Pressure  
Sea Level Pressure 30.31 in    
Wind  
Wind Speed 9 mph (NNE)    
Max Wind Speed 15 mph    
Max Gust Speed 23 mph    
Visibility 10 miles    
Events      
Averages and records for this station are not official NWS values.
T = Trace of Precipitation, MM = Missing Value Source: NWS Daily Summary

Daily Weather History Graph

Daily Weather History Graph

Search for Another Location

Airport or City:

Trip Planner

Search our weather history database for the weather conditions in past years. The results will help you decide how hot, cold, wet, or windy it might be!

Date:

Astronomy

Sep. 17, 2013 Rise Set
Actual Time 6:49 AM EDT 7:10 PM EDT
Civil Twilight 6:23 AM EDT 7:36 PM EDT
Nautical Twilight 5:53 AM EDT 8:06 PM EDT
Astronomical Twilight 5:22 AM EDT 8:37 PM EDT
Moon 5:54 PM EDT (9/17) 4:44 AM EDT (9/17)
Length of Visible Light 13h 12m
Length of Day
12h 20m
Waxing Gibbous, 96% of the Moon is Illuminated
Sep 17
Waxing Gibbous
Sep 19
Full
Sep 26
Last Quarter
Oct 4
New
Oct 11
First Quarter

Hourly Weather History & Observations

Time (EDT) Temp. Dew Point Humidity Pressure Visibility Wind Dir Wind Speed Gust Speed Precip Events Conditions
12:54 AM 64.0 °F 57.0 °F 78% 30.20 in 10.0 mi NNW 4.6 mph - N/A   Clear
1:54 AM 63.0 °F 57.0 °F 81% 30.21 in 10.0 mi NNW 5.8 mph - N/A   Clear
2:54 AM 62.1 °F 55.0 °F 78% 30.21 in 10.0 mi North 6.9 mph - N/A   Clear
3:54 AM 62.1 °F 55.0 °F 78% 30.22 in 10.0 mi North 5.8 mph - N/A   Clear
4:54 AM 61.0 °F 55.0 °F 81% 30.23 in 10.0 mi North 6.9 mph - N/A   Partly Cloudy
5:54 AM 64.9 °F 55.0 °F 70% 30.25 in 10.0 mi NNE 11.5 mph 19.6 mph N/A   Clear
6:54 AM 64.9 °F 54.0 °F 68% 30.27 in 10.0 mi NNE 13.8 mph 23.0 mph N/A   Partly Cloudy
7:54 AM 64.9 °F 54.0 °F 68% 30.30 in 10.0 mi NE 15.0 mph 21.9 mph N/A   Clear
8:38 AM 66.2 °F 55.4 °F 68% 30.31 in 10.0 mi NNE 10.4 mph - N/A   Mostly Cloudy
8:54 AM 66.0 °F 54.0 °F 65% 30.32 in 10.0 mi NNE 13.8 mph 21.9 mph N/A   Scattered Clouds
9:06 AM 68.0 °F 55.4 °F 64% 30.32 in 10.0 mi NE 11.5 mph 23.0 mph N/A   Mostly Cloudy
9:13 AM 68.0 °F 55.4 °F 64% 30.33 in 10.0 mi NNE 11.5 mph 20.7 mph N/A   Scattered Clouds
9:54 AM 68.0 °F 54.0 °F 61% 30.35 in 10.0 mi NE 11.5 mph 20.7 mph N/A   Scattered Clouds
10:29 AM 68.0 °F 53.6 °F 60% 30.36 in 10.0 mi NNE 12.7 mph 19.6 mph N/A   Mostly Cloudy
10:54 AM 69.1 °F 54.0 °F 58% 30.36 in 10.0 mi NNE 12.7 mph 19.6 mph N/A   Mostly Cloudy
11:54 AM 68.0 °F 53.1 °F 59% 30.37 in 10.0 mi NNE 10.4 mph - N/A   Overcast
12:54 PM 69.1 °F 51.1 °F 53% 30.37 in 10.0 mi NNE 13.8 mph 18.4 mph N/A   Overcast
1:30 PM 73.4 °F 51.8 °F 47% 30.36 in 10.0 mi North 11.5 mph - N/A   Scattered Clouds
1:54 PM 70.0 °F 48.9 °F 47% 30.34 in 10.0 mi NNE 13.8 mph - N/A   Mostly Cloudy
2:54 PM 72.0 °F 50.0 °F 46% 30.33 in 10.0 mi North 11.5 mph 18.4 mph N/A   Scattered Clouds
3:54 PM 72.0 °F 50.0 °F 46% 30.32 in 10.0 mi NE 9.2 mph - N/A   Mostly Cloudy
4:54 PM 68.0 °F 48.0 °F 49% 30.32 in 10.0 mi North 9.2 mph - N/A   Scattered Clouds
5:54 PM 69.1 °F 48.0 °F 47% 30.32 in 10.0 mi NNE 8.1 mph - N/A   Partly Cloudy
6:54 PM 64.9 °F 48.9 °F 56% 30.31 in 10.0 mi NNE 5.8 mph - N/A   Clear
7:54 PM 64.0 °F 50.0 °F 60% 30.31 in 10.0 mi ENE 6.9 mph - N/A   Mostly Cloudy
8:54 PM 63.0 °F 48.9 °F 60% 30.32 in 10.0 mi ENE 8.1 mph - N/A   Scattered Clouds
9:54 PM 64.0 °F 48.9 °F 58% 30.32 in 10.0 mi ENE 8.1 mph - N/A   Overcast
10:54 PM 62.1 °F 48.0 °F 60% 30.33 in 10.0 mi NNE 5.8 mph - N/A   Mostly Cloudy
11:54 PM 59.0 °F 46.9 °F 64% 30.32 in 10.0 mi NNE 4.6 mph - N/A   Partly Cloudy